FW5345 Weather Reports


time (UTC)temp
C
wind
direction
speed
KPH
gust
KPH
rain 1hr
cm
rain 24hr
cm
rain mn
cm
humidity
%
barometer
mb
20260505123109 8 154 4.8 8.0 0.00 0.00 0.00 90 1013.3
20260505121532 8 180 4.8 6.4 0.00 0.00 0.00 89 1013.3
20260505120036 8 181 3.2 4.8 0.00 0.00 0.00 89 1013.3
20260505114535 9 166 3.2 6.4 0.00 0.00 0.00 89 1013.2
20260505113029 9 162 3.2 6.4 0.00 0.00 0.00 88 1013.2
20260505111537 9 157 1.6 6.4 0.00 0.00 0.00 86 1013.0
20260505101536 10 166 4.8 6.4 0.00 0.00 0.00 84 1012.8
20260505100036 10 170 3.2 8.0 0.00 0.00 0.00 83 1012.8
20260505094536 11 169 3.2 6.4 0.00 0.00 0.00 80 1012.8
20260505093037 11 171 1.6 8.0 0.00 0.00 0.00 78 1012.7
20260505091536 12 169 1.6 4.8 0.00 0.00 0.00 77 1012.6
20260505090110 12 196 1.6 8.0 0.00 0.00 0.00 76 1012.5
20260505084536 12 148 1.6 9.7 0.00 0.00 0.00 75 1012.5
20260505083035 12 124 3.2 9.7 0.00 0.00 0.00 74 1012.5
20260505081533 12 134 6.4 11.3 0.00 0.00 0.00 75 1012.5
20260505080036 13 158 3.2 8.0 0.00 0.00 0.00 76 1012.5
20260505074536 13 144 6.4 11.3 0.00 0.00 0.00 79 1012.5
20260505073037 13 157 4.8 9.7 0.00 0.00 0.00 78 1012.5
20260505071608 14 106 4.8 8.0 0.00 0.00 0.00 75 1012.4
20260505070032 15 94 3.2 6.4 0.00 0.00 0.00 73 1012.4
20260505064532 15 122 3.2 8.0 0.00 0.00 0.00 71 1012.4
20260505063034 15 182 1.6 9.7 0.00 0.00 0.00 70 1012.4
20260505060036 16 105 3.2 6.4 0.00 0.00 0.00 65 1012.4
20260505054536 17 92 4.8 9.7 0.00 0.00 0.00 64 1012.4
20260505053031 17 259 6.4 19.3 0.00 0.00 0.00 63 1012.3
20260505051537 17 230 3.2 9.7 0.00 0.00 0.00 61 1012.3
20260505041536 18 175 3.2 8.0 0.00 0.00 0.00 53 1011.8
20260505040048 18 226 3.2 11.3 0.00 0.00 0.00 50 1011.5
20260505034650 19 194 4.8 11.3 0.00 0.00 0.00 48 1011.4
20260505033035 19 265 3.2 17.7 0.00 0.00 0.00 47 1011.2
20260505031529 20 239 4.8 14.5 0.00 0.00 0.00 45 1010.9
20260505030111 20 215 4.8 16.1 0.00 0.00 0.00 45 1010.8
20260505024649 20 262 4.8 17.7 0.00 0.00 0.00 43 1010.7
20260505023036 21 239 6.4 16.1 0.00 0.00 0.00 42 1010.6
20260505020035 22 302 3.2 9.7 0.00 0.00 0.00 40 1010.6
20260505014535 23 264 4.8 16.1 0.00 0.00 0.00 38 1010.5
20260505013031 23 280 6.4 24.1 0.00 0.00 0.00 37 1010.4
20260505011609 23 273 6.4 14.5 0.00 0.00 0.00 36 1010.4
20260505010035 24 294 6.4 17.7 0.00 0.00 0.00 34 1010.4
20260505003111 25 231 6.4 24.1 0.00 0.00 0.00 33 1010.3
20260505001536 25 264 4.8 27.4 0.00 0.00 0.00 34 1010.2
20260505000038 25 286 6.4 20.9 0.00 0.00 0.00 33 1010.2
20260504234534 26 281 6.4 20.9 0.00 0.00 0.00 33 1010.1
20260504231530 26 279 8.0 17.7 0.00 0.00 0.00 34 1010.2
20260504230142 26 268 6.4 19.3 0.00 0.00 0.00 34 1010.2
20260504224531 26 267 6.4 17.7 0.00 0.00 0.00 33 1010.4
20260504223109 26 237 8.0 27.4 0.00 0.00 0.00 32 1010.5
20260504221536 26 234 8.0 22.5 0.00 0.00 0.00 32 1010.5
20260504220035 26 276 8.0 20.9 0.00 0.00 0.00 32 1010.5
20260504214535 26 283 8.0 22.5 0.00 0.00 0.00 33 1010.6
20260504211537 26 289 9.7 27.4 0.00 0.00 0.00 33 1010.6
20260504210037 26 293 8.0 17.7 0.00 0.00 0.00 33 1010.7
20260504204536 26 287 8.0 19.3 0.00 0.00 0.00 33 1010.8
20260504203032 26 310 6.4 17.7 0.00 0.00 0.00 36 1010.9
20260504201534 25 314 9.7 19.3 0.00 0.00 0.00 38 1011.0
20260504200036 25 326 9.7 16.1 0.00 0.00 0.00 40 1011.0
20260504194533 25 11 9.7 17.7 0.00 0.00 0.00 41 1010.9
20260504193111 25 10 9.7 19.3 0.00 0.00 0.00 40 1011.0
20260504191534 25 346 8.0 12.9 0.00 0.00 0.00 41 1011.2
20260504190037 25 357 8.0 14.5 0.00 0.00 0.00 43 1011.2
20260504184533 24 12 9.7 14.5 0.00 0.00 0.00 44 1011.3
20260504183032 24 11 9.7 14.5 0.00 0.00 0.00 45 1011.3
20260504181535 24 9 6.4 11.3 0.00 0.00 0.00 45 1011.3
20260504174531 23 338 6.4 14.5 0.00 0.00 0.00 44 1011.4
20260504173035 23 4 6.4 11.3 0.00 0.00 0.00 44 1011.3
20260504171535 22 356 4.8 9.7 0.00 0.00 0.00 46 1011.3
20260504170112 21 340 3.2 9.7 0.00 0.00 0.00 49 1011.4